N8IR-11 Weather Reports


Display with metric or nautical units.
time (UTC)temp
F
wind
direction
speed
MPH
gust
MPH
rain 1hr
in
rain 24hr
in
rain mn
in
humidity
%
barometer
mb
20260503211232 62 228 11.0 18.0 0.00 0.00 0.00 44 1010.3
20260503210712 61 227 9.0 17.0 0.00 0.00 0.00 44 1010.2
20260503210212 61 195 12.0 20.0 0.00 0.00 0.00 43 1010.1
20260503205712 61 191 10.0 19.0 0.00 0.00 0.00 42 1010.2
20260503205212 62 226 5.0 19.0 0.00 0.00 0.00 41 1010.4
20260503204732 62 208 17.0 27.0 0.00 0.00 0.00 41 1010.5
20260503204212 62 209 11.0 18.0 0.00 0.00 0.00 40 1010.4
20260503203712 62 188 11.0 21.0 0.00 0.00 0.00 40 1010.5
20260503203212 63 210 10.0 28.0 0.00 0.00 0.00 39 1010.6
20260503202712 63 219 13.0 26.0 0.00 0.00 0.00 40 1010.7
20260503202212 63 231 11.0 16.0 0.00 0.00 0.00 39 1010.6
20260503201712 63 204 11.0 21.0 0.00 0.00 0.00 38 1010.7
20260503201212 64 236 12.0 19.0 0.00 0.00 0.00 40 1010.8
20260503200712 63 216 7.0 20.0 0.00 0.00 0.00 41 1010.9
20260503200212 63 193 7.0 14.0 0.00 0.00 0.00 40 1010.9
20260503195712 63 212 10.0 19.0 0.00 0.00 0.00 39 1011.0
20260503195212 63 194 7.0 17.0 0.00 0.00 0.00 40 1011.0
20260503194712 63 229 12.0 21.0 0.00 0.00 0.00 38 1011.1
20260503194212 63 195 12.0 23.0 0.00 0.00 0.00 41 1011.0
20260503193712 63 195 12.0 21.0 0.00 0.00 0.00 39 1011.1
20260503193212 62 179 9.0 19.0 0.00 0.00 0.00 39 1011.2
20260503192712 62 231 13.0 20.0 0.00 0.00 0.00 39 1011.2
20260503192212 63 207 12.0 21.0 0.00 0.00 0.00 39 1011.2
20260503191712 63 218 12.0 20.0 0.00 0.00 0.00 40 1011.3
20260503191212 63 217 12.0 19.0 0.00 0.00 0.00 41 1011.3
20260503190712 62 182 12.0 22.0 0.00 0.00 0.00 39 1011.5
20260503190212 63 202 12.0 32.0 0.00 0.00 0.00 39 1011.6
20260503185712 63 191 10.0 17.0 0.00 0.00 0.00 39 1011.5
20260503185212 62 200 10.0 19.0 0.00 0.00 0.00 40 1011.7
20260503184732 62 211 10.0 18.0 0.00 0.00 0.00 40 1011.8
20260503184212 62 228 15.0 23.0 0.00 0.00 0.00 40 1012.0
20260503183732 63 246 9.0 15.0 0.00 0.00 0.00 39 1012.0
20260503183232 63 199 11.0 22.0 0.00 0.00 0.00 40 1012.1
20260503182712 63 216 12.0 24.0 0.00 0.00 0.00 41 1012.2
20260503182212 63 186 13.0 21.0 0.00 0.00 0.00 39 1012.2
20260503181732 63 241 11.0 21.0 0.00 0.00 0.00 39 1012.1
20260503181212 63 194 8.0 15.0 0.00 0.00 0.00 41 1012.2
20260503180712 63 201 8.0 15.0 0.00 0.00 0.00 41 1012.3
20260503180257 63 237 9.0 16.0 0.00 0.00 0.00 43 1012.3
20260503175712 62 246 8.0 16.0 0.00 0.00 0.00 41 1012.5
20260503175212 62 200 9.0 20.0 0.00 0.00 0.00 39 1012.5
20260503174712 62 209 10.0 18.0 0.00 0.00 0.00 41 1012.5
20260503174212 62 203 10.0 18.0 0.00 0.00 0.00 40 1012.6
20260503173712 62 224 15.0 22.0 0.00 0.00 0.00 42 1012.8
20260503173212 62 229 8.0 15.0 0.00 0.00 0.00 43 1012.8
20260503172712 61 246 11.0 16.0 0.00 0.00 0.00 41 1012.8
20260503172212 61 238 12.0 21.0 0.00 0.00 0.00 41 1012.9
20260503171712 60 239 9.0 20.0 0.00 0.00 0.00 39 1012.9
20260503171212 61 224 14.0 29.0 0.00 0.00 0.00 40 1013.2
20260503170712 61 179 5.0 25.0 0.00 0.00 0.00 41 1013.0
20260503170212 61 210 12.0 25.0 0.00 0.00 0.00 42 1013.2
20260503160211 61 208 11.0 19.0 0.00 0.00 0.00 45 1013.9
20260503150712 57 217 8.0 17.0 0.00 0.00 0.00 49 1014.4
20260503150212 57 220 8.0 18.0 0.00 0.00 0.00 52 1014.5
20260503140212 53 254 5.0 10.0 0.00 0.00 0.00 57 1015.1
20260503131231 48 226 5.0 11.0 0.00 0.00 0.00 61 1015.2
20260503130711 48 224 5.0 12.0 0.00 0.00 0.00 61 1015.3
20260503130211 47 220 7.0 15.0 0.00 0.00 0.00 62 1015.1
20260503120211 41 182 4.0 9.0 0.00 0.00 0.00 72 1015.1
20260503110711 37 200 2.0 6.0 0.00 0.00 0.00 78 1014.8
20260503110211 37 207 2.0 3.0 0.00 0.00 0.00 78 1014.8
20260503100211 35 203 0.0 4.0 0.00 0.00 0.00 83 1014.8
20260503090211 34 0.0 0.0 0.00 0.00 0.00 85 1015.1
20260503081211 34 223 1.0 2.0 0.00 0.00 0.00 87 1015.3
20260503080710 34 211 2.0 4.0 0.00 0.00 0.00 88 1015.3
20260503080231 34 204 1.0 3.0 0.00 0.00 0.00 88 1015.3
20260503072711 33 217 0.0 1.0 0.00 0.00 0.00 90 1015.4
20260503072210 33 0.0 0.0 0.00 0.00 0.00 90 1015.4
20260503071710 33 0.0 0.0 0.00 0.00 0.00 90 1015.4
20260503071211 33 0.0 0.0 0.00 0.00 0.00 90 1015.4
20260503070711 33 221 0.0 1.0 0.00 0.00 0.00 90 1015.4
20260503070211 33 221 0.0 1.0 0.00 0.00 0.00 90 1015.4
20260503060210 34 0.0 0.0 0.00 0.00 0.00 89 1015.7
20260503054710 34 0.0 0.0 0.00 0.00 0.00 88 1015.7
20260503054210 34 0.0 0.0 0.00 0.00 0.00 88 1015.9
20260503053711 35 0.0 0.0 0.00 0.00 0.00 88 1015.9
20260503053210 35 0.0 0.0 0.00 0.00 0.00 88 1015.9
20260503052711 35 0.0 0.0 0.00 0.00 0.00 87 1015.9
20260503052210 35 0.0 0.0 0.00 0.00 0.00 87 1015.9
20260503051710 35 0.0 0.0 0.00 0.00 0.00 87 1015.9
20260503051210 35 0.0 0.0 0.00 0.00 0.00 87 1015.9
20260503050731 35 0.0 0.0 0.00 0.00 0.00 87 1015.9
20260503050210 35 0.0 0.0 0.00 0.00 0.00 86 1016.0
20260503045710 35 0.0 0.0 0.00 0.00 0.00 86 1015.9
20260503045231 35 0.0 0.0 0.00 0.00 0.00 86 1016.1
20260503044710 36 0.0 0.0 0.00 0.00 0.00 85 1016.1
20260503044210 36 0.0 0.0 0.00 0.00 0.00 85 1016.2
20260503043710 36 0.0 0.0 0.00 0.00 0.00 84 1016.1
20260503043210 36 0.0 0.0 0.00 0.00 0.00 84 1016.0
20260503042710 36 0.0 0.0 0.00 0.00 0.00 84 1016.1
20260503042212 36 0.0 0.0 0.00 0.00 0.00 83 1016.1
20260503041712 37 0.0 0.0 0.00 0.00 0.00 83 1016.1
20260503041212 37 0.0 0.0 0.00 0.00 0.00 83 1016.1
20260503040712 37 0.0 0.0 0.00 0.00 0.00 82 1016.1
20260503040212 37 0.0 0.0 0.00 0.00 0.00 82 1016.2
20260503035710 37 0.0 0.0 0.00 0.00 0.00 81 1016.2
20260503035210 37 0.0 0.0 0.00 0.00 0.00 81 1016.2
20260503034710 37 0.0 0.0 0.00 0.00 0.00 80 1016.2
20260503034231 37 0.0 0.0 0.00 0.00 0.00 79 1016.1
20260503033710 38 0.0 0.0 0.00 0.00 0.00 78 1016.2
20260503033210 38 0.0 0.0 0.00 0.00 0.00 78 1016.3
20260503032730 38 0.0 0.0 0.00 0.00 0.00 77 1016.3
20260503032230 38 0.0 0.0 0.00 0.00 0.00 77 1016.3
20260503031710 39 0.0 0.0 0.00 0.00 0.00 77 1016.3
20260503031210 39 0.0 0.0 0.00 0.00 0.00 76 1016.4
20260503030710 39 0.0 0.0 0.00 0.00 0.00 76 1016.4
20260503030210 39 0.0 0.0 0.00 0.00 0.00 76 1016.4
20260503025710 40 0.0 0.0 0.00 0.00 0.00 76 1016.4
20260503025211 40 0.0 0.0 0.00 0.00 0.00 75 1016.4
20260503024710 40 0.0 0.0 0.00 0.00 0.00 74 1016.3
20260503024210 41 0.0 0.0 0.00 0.00 0.00 73 1016.3
20260503023710 41 0.0 0.0 0.00 0.00 0.00 71 1016.3
20260503023210 41 0.0 0.0 0.00 0.00 0.00 71 1016.4
20260503022710 42 0.0 0.0 0.00 0.00 0.00 71 1016.4
20260503022210 42 0.0 0.0 0.00 0.00 0.00 71 1016.5
20260503021711 42 0.0 0.0 0.00 0.00 0.00 70 1016.4
20260503021210 43 0.0 0.0 0.00 0.00 0.00 68 1016.4
20260503020731 43 0.0 0.0 0.00 0.00 0.00 67 1016.4
20260503020212 43 0.0 0.0 0.00 0.00 0.00 66 1016.3
20260503015712 43 0.0 0.0 0.00 0.00 0.00 65 1016.3
20260503015212 43 0.0 0.0 0.00 0.00 0.00 65 1016.3
20260503014712 44 0.0 0.0 0.00 0.00 0.00 64 1016.3
20260503014232 44 0.0 0.0 0.00 0.00 0.00 63 1016.3
20260503013732 44 0.0 0.0 0.00 0.00 0.00 64 1016.3
20260503013212 44 0.0 0.0 0.00 0.00 0.00 62 1016.2
20260503012712 44 0.0 0.0 0.00 0.00 0.00 60 1016.1
20260503012212 45 0.0 0.0 0.00 0.00 0.00 59 1016.1
20260503011712 45 0.0 0.0 0.00 0.00 0.00 59 1016.1
20260503011212 45 0.0 0.0 0.00 0.00 0.00 59 1016.1
20260503010712 45 0.0 0.0 0.00 0.00 0.00 58 1016.1
20260503010212 45 0.0 0.0 0.00 0.00 0.00 57 1016.1
20260503005712 45 0.0 0.0 0.00 0.00 0.00 55 1016.1
20260503005212 46 0.0 0.0 0.00 0.00 0.00 54 1016.0
20260503004712 46 0.0 0.0 0.00 0.00 0.00 54 1016.0
20260503004212 46 0.0 0.0 0.00 0.00 0.00 53 1016.0
20260503003712 46 0.0 0.0 0.00 0.00 0.00 53 1016.0
20260503003212 46 226 0.0 1.0 0.00 0.00 0.00 53 1016.0
20260503002752 47 0.0 0.0 0.00 0.00 0.00 53 1015.9
20260503002252 47 0.0 0.0 0.00 0.00 0.00 53 1016.0
20260503001712 47 0.0 1.0 0.00 0.00 0.00 53 1015.9
20260503001212 47 0.0 3.0 0.00 0.00 0.00 53 1015.8
20260503000712 47 0.0 1.0 0.00 0.00 0.00 53 1015.8
20260503000212 47 241 0.0 2.0 0.00 0.00 0.00 51 1015.8
20260502235712 47 0.0 0.0 0.00 0.00 0.00 51 1015.7
20260502235212 47 0.0 0.0 0.00 0.00 0.00 51 1015.7
20260502234712 47 222 2.0 3.0 0.00 0.00 0.00 52 1015.6
20260502234232 47 239 1.0 3.0 0.00 0.00 0.00 52 1015.7
20260502233712 48 0.0 0.0 0.00 0.00 0.00 51 1015.7
20260502233212 48 238 0.0 1.0 0.00 0.00 0.00 50 1015.7
20260502232712 47 251 1.0 4.0 0.00 0.00 0.00 50 1015.7
20260502232212 47 0.0 0.0 0.00 0.00 0.00 52 1015.7
20260502231732 47 251 0.0 2.0 0.00 0.00 0.00 52 1015.8
20260502231212 47 257 0.0 2.0 0.00 0.00 0.00 50 1015.8
20260502230712 48 40 0.0 1.0 0.00 0.00 0.00 49 1015.9
20260502230212 48 353 1.0 5.0 0.00 0.00 0.00 49 1015.9
20260502225712 48 339 1.0 3.0 0.00 0.00 0.00 49 1015.9
20260502225212 48 281 1.0 5.0 0.00 0.00 0.00 49 1015.8
20260502224712 48 290 1.0 2.0 0.00 0.00 0.00 48 1015.8
20260502224212 48 24 3.0 5.0 0.00 0.00 0.00 46 1015.7
20260502223712 48 319 0.0 3.0 0.00 0.00 0.00 47 1015.8
20260502223252 48 320 0.0 8.0 0.00 0.00 0.00 46 1015.8
20260502222712 48 290 4.0 7.0 0.00 0.00 0.00 48 1015.8
20260502222212 49 249 2.0 6.0 0.00 0.00 0.00 48 1015.9
20260502221712 49 279 1.0 3.0 0.00 0.00 0.00 48 1015.9
20260502221212 49 325 2.0 5.0 0.00 0.00 0.00 50 1015.9
20260502220712 48 0.0 3.0 0.00 0.00 0.00 48 1016.0
20260502220232 49 205 1.0 3.0 0.00 0.00 0.00 49 1016.0
20260502215712 49 302 1.0 2.0 0.00 0.00 0.00 50 1016.0
20260502215212 49 292 2.0 6.0 0.00 0.00 0.00 50 1016.0
20260502214712 49 319 1.0 3.0 0.00 0.00 0.00 50 1016.0
20260502214212 48 253 1.0 6.0 0.00 0.00 0.00 49 1015.9
20260502213732 48 18 1.0 2.0 0.00 0.00 0.00 49 1016.0
20260502213212 48 268 3.0 7.0 0.00 0.00 0.00 48 1016.0
20260502212732 49 239 2.0 9.0 0.00 0.00 0.00 46 1015.9
20260502212212 49 319 2.0 7.0 0.00 0.00 0.00 49 1015.9
20260502211712 49 321 3.0 8.0 0.00 0.00 0.00 47 1016.0